Year,Month,Day,Hour,Minute,Value (Times are PST for temperature in C)
2010,06,22,00,00,10.10
2010,06,22,00,01,10.10
2010,06,22,00,02,10.10
2010,06,22,00,03,10.10
2010,06,22,00,04,10.10
2010,06,22,00,05,10.00
2010,06,22,00,06,10.00
2010,06,22,00,07,10.00
2010,06,22,00,08,10.00
2010,06,22,00,09,10.00
2010,06,22,00,10,10.00
2010,06,22,00,11,10.00
2010,06,22,00,12,10.00
2010,06,22,00,13,10.00
2010,06,22,00,14,10.00
2010,06,22,00,15,10.00
2010,06,22,00,16,10.00
2010,06,22,00,17,10.00
2010,06,22,00,18,10.00
2010,06,22,00,19,10.00
2010,06,22,00,20,10.00
2010,06,22,00,21,10.00
2010,06,22,00,22,10.00
2010,06,22,00,23,10.00
2010,06,22,00,24,10.00
2010,06,22,00,25,10.00
2010,06,22,00,26,10.00
2010,06,22,00,27,9.90
2010,06,22,00,28,9.90
2010,06,22,00,29,9.90
2010,06,22,00,30,9.90
2010,06,22,00,31,9.90
2010,06,22,00,32,9.90
2010,06,22,00,33,9.90
2010,06,22,00,34,9.90
2010,06,22,00,35,9.90
2010,06,22,00,36,9.90
2010,06,22,00,37,9.90
2010,06,22,00,38,9.90
2010,06,22,00,39,9.80
2010,06,22,00,40,9.80
2010,06,22,00,41,9.80
2010,06,22,00,42,9.80
2010,06,22,00,43,9.80
2010,06,22,00,44,9.80
2010,06,22,00,45,9.80
2010,06,22,00,46,9.80
2010,06,22,00,47,9.80
2010,06,22,00,48,9.80
2010,06,22,00,49,9.80
2010,06,22,00,50,9.70
2010,06,22,00,51,9.70
2010,06,22,00,52,9.70
2010,06,22,00,53,9.70
2010,06,22,00,54,9.70
2010,06,22,00,55,9.70
2010,06,22,00,56,9.70
2010,06,22,00,57,9.70
2010,06,22,00,58,9.70
2010,06,22,00,59,9.70
2010,06,22,01,00,9.70
2010,06,22,01,01,9.70
2010,06,22,01,02,9.70
2010,06,22,01,03,9.70
2010,06,22,01,04,9.70
2010,06,22,01,05,9.70
2010,06,22,01,06,9.70
2010,06,22,01,07,9.70
2010,06,22,01,08,9.70
2010,06,22,01,09,9.70
2010,06,22,01,10,9.70
2010,06,22,01,11,9.70
2010,06,22,01,12,9.70
2010,06,22,01,13,9.70
2010,06,22,01,14,9.70
2010,06,22,01,15,9.70
2010,06,22,01,16,9.60
2010,06,22,01,17,9.60
2010,06,22,01,18,9.60
2010,06,22,01,19,9.60
2010,06,22,01,20,9.60
2010,06,22,01,21,9.60
2010,06,22,01,22,9.60
2010,06,22,01,23,9.60
2010,06,22,01,24,9.60
2010,06,22,01,25,9.60
2010,06,22,01,26,9.50
2010,06,22,01,27,9.50
2010,06,22,01,28,9.50
2010,06,22,01,29,9.50
2010,06,22,01,30,9.50
2010,06,22,01,31,9.40
2010,06,22,01,32,9.40
2010,06,22,01,33,9.40
2010,06,22,01,34,9.40
2010,06,22,01,35,9.40
2010,06,22,01,36,9.40
2010,06,22,01,37,9.40
2010,06,22,01,38,9.40
2010,06,22,01,39,9.40
2010,06,22,01,40,9.40
2010,06,22,01,41,9.40
2010,06,22,01,42,9.40
2010,06,22,01,43,9.40
2010,06,22,01,44,9.40
2010,06,22,01,45,9.40
2010,06,22,01,46,9.40
2010,06,22,01,47,9.40
2010,06,22,01,48,9.40
2010,06,22,01,49,9.30
2010,06,22,01,50,9.30
2010,06,22,01,51,9.30
2010,06,22,01,52,9.30
2010,06,22,01,53,9.30
2010,06,22,01,54,9.30
2010,06,22,01,55,9.30
2010,06,22,01,56,9.30
2010,06,22,01,57,9.30
2010,06,22,01,58,9.30
2010,06,22,01,59,9.20
2010,06,22,02,00,9.20
2010,06,22,02,01,9.20
2010,06,22,02,02,9.20
2010,06,22,02,03,9.20
2010,06,22,02,04,9.20
2010,06,22,02,05,9.20
2010,06,22,02,06,9.20
2010,06,22,02,07,9.20
2010,06,22,02,08,9.20
2010,06,22,02,09,9.20
2010,06,22,02,10,9.20
2010,06,22,02,11,9.20
2010,06,22,02,12,9.20
2010,06,22,02,13,9.20
2010,06,22,02,14,9.20
2010,06,22,02,15,9.20
2010,06,22,02,16,9.20
2010,06,22,02,17,9.20
2010,06,22,02,18,9.10
2010,06,22,02,19,9.10
2010,06,22,02,20,9.10
2010,06,22,02,21,9.10
2010,06,22,02,22,9.10
2010,06,22,02,23,9.10
2010,06,22,02,24,9.10
2010,06,22,02,25,9.10
2010,06,22,02,26,9.10
2010,06,22,02,27,9.10
2010,06,22,02,28,9.10
2010,06,22,02,29,9.00
2010,06,22,02,30,9.00
2010,06,22,02,31,9.00
2010,06,22,02,32,9.00
2010,06,22,02,33,9.00
2010,06,22,02,34,9.00
2010,06,22,02,35,9.00
2010,06,22,02,36,9.00
2010,06,22,02,37,9.00
2010,06,22,02,38,9.00
2010,06,22,02,39,9.00
2010,06,22,02,40,9.00
2010,06,22,02,41,9.00
2010,06,22,02,42,9.00
2010,06,22,02,43,9.00
2010,06,22,02,44,9.00
2010,06,22,02,45,9.00
2010,06,22,02,46,8.90
2010,06,22,02,47,8.90
2010,06,22,02,48,8.90
2010,06,22,02,49,8.90
2010,06,22,02,50,8.90
2010,06,22,02,51,8.90
2010,06,22,02,52,8.90
2010,06,22,02,53,8.80
2010,06,22,02,54,8.80
2010,06,22,02,55,8.80
2010,06,22,02,56,8.80
2010,06,22,02,57,8.80
2010,06,22,02,58,8.80
2010,06,22,02,59,8.80
2010,06,22,03,00,8.80
2010,06,22,03,01,8.80
2010,06,22,03,02,8.80
2010,06,22,03,03,8.80
2010,06,22,03,04,8.80
2010,06,22,03,05,8.80
2010,06,22,03,06,8.80
2010,06,22,03,07,8.80
2010,06,22,03,08,8.80
2010,06,22,03,09,8.80
2010,06,22,03,10,8.80
2010,06,22,03,11,8.80
2010,06,22,03,12,8.80
2010,06,22,03,13,8.80
2010,06,22,03,14,8.80
2010,06,22,03,15,8.80
2010,06,22,03,16,8.80
2010,06,22,03,17,8.80
2010,06,22,03,18,8.80
2010,06,22,03,19,8.70
2010,06,22,03,20,8.70
2010,06,22,03,21,8.70
2010,06,22,03,22,8.70
2010,06,22,03,23,8.70
2010,06,22,03,24,8.70
2010,06,22,03,25,8.70
2010,06,22,03,26,8.70
2010,06,22,03,27,8.70
2010,06,22,03,28,8.70
2010,06,22,03,29,8.70
2010,06,22,03,30,8.70
2010,06,22,03,31,8.70
2010,06,22,03,32,8.70
2010,06,22,03,33,8.70
2010,06,22,03,34,8.70
2010,06,22,03,35,8.70
2010,06,22,03,36,8.70
2010,06,22,03,37,8.70
2010,06,22,03,38,8.70
2010,06,22,03,39,8.70
2010,06,22,03,40,8.70
2010,06,22,03,41,8.70
2010,06,22,03,42,8.70
2010,06,22,03,43,8.80
2010,06,22,03,44,8.80
2010,06,22,03,45,8.80
2010,06,22,03,46,8.80
2010,06,22,03,47,8.80
2010,06,22,03,48,8.80
2010,06,22,03,49,8.80
2010,06,22,03,50,8.80
2010,06,22,03,51,8.80
2010,06,22,03,52,8.80
2010,06,22,03,53,8.80
2010,06,22,03,54,8.80
2010,06,22,03,55,8.80
2010,06,22,03,56,8.80
2010,06,22,03,57,8.80
2010,06,22,03,58,8.80
2010,06,22,03,59,8.80
2010,06,22,04,00,8.80
2010,06,22,04,01,8.80
2010,06,22,04,02,8.80
2010,06,22,04,03,8.80
2010,06,22,04,04,8.80
2010,06,22,04,05,8.80
2010,06,22,04,06,8.80
2010,06,22,04,07,8.70
2010,06,22,04,08,8.70
2010,06,22,04,09,8.70
2010,06,22,04,10,8.70
2010,06,22,04,11,8.70
2010,06,22,04,12,8.70
2010,06,22,04,13,8.70
2010,06,22,04,14,8.70
2010,06,22,04,15,8.70
2010,06,22,04,16,8.70
2010,06,22,04,17,8.70
2010,06,22,04,18,8.70
2010,06,22,04,19,8.70
2010,06,22,04,20,8.70
2010,06,22,04,21,8.70
2010,06,22,04,22,8.70
2010,06,22,04,23,8.70
2010,06,22,04,24,8.70
2010,06,22,04,25,8.70
2010,06,22,04,26,8.70
2010,06,22,04,27,8.70
2010,06,22,04,28,8.70
2010,06,22,04,29,8.70
2010,06,22,04,30,8.70
2010,06,22,04,31,8.70
2010,06,22,04,32,8.70
2010,06,22,04,33,8.70
2010,06,22,04,34,8.70
2010,06,22,04,35,8.70
2010,06,22,04,36,8.70
2010,06,22,04,37,8.60
2010,06,22,04,38,8.60
2010,06,22,04,39,8.60
2010,06,22,04,40,8.60
2010,06,22,04,41,8.60
2010,06,22,04,42,8.60
2010,06,22,04,43,8.60
2010,06,22,04,44,8.60
2010,06,22,04,45,8.60
2010,06,22,04,46,8.60
2010,06,22,04,47,8.60
2010,06,22,04,48,8.60
2010,06,22,04,49,8.60
2010,06,22,04,50,8.60
2010,06,22,04,51,8.50
2010,06,22,04,52,8.50
2010,06,22,04,53,8.50
2010,06,22,04,54,8.50
2010,06,22,04,55,8.50
2010,06,22,04,56,8.50
2010,06,22,04,57,8.50
2010,06,22,04,58,8.40
2010,06,22,04,59,8.40
2010,06,22,05,00,8.40
2010,06,22,05,01,8.40
2010,06,22,05,02,8.50
2010,06,22,05,03,8.50
2010,06,22,05,04,8.50
2010,06,22,05,05,8.50
2010,06,22,05,06,8.50
2010,06,22,05,07,8.50
2010,06,22,05,08,8.50
2010,06,22,05,09,8.50
2010,06,22,05,10,8.50
2010,06,22,05,11,8.50
2010,06,22,05,12,8.50
2010,06,22,05,13,8.50
2010,06,22,05,14,8.40
2010,06,22,05,15,8.40
2010,06,22,05,16,8.40
2010,06,22,05,17,8.40
2010,06,22,05,18,8.40
2010,06,22,05,19,8.40
2010,06,22,05,20,8.40
2010,06,22,05,21,8.40
2010,06,22,05,22,8.40
2010,06,22,05,23,8.40
2010,06,22,05,24,8.40
2010,06,22,05,25,8.40
2010,06,22,05,26,8.40
2010,06,22,05,27,8.40
2010,06,22,05,28,8.40
2010,06,22,05,29,8.40
2010,06,22,05,30,8.40
2010,06,22,05,31,8.40
2010,06,22,05,32,8.40
2010,06,22,05,33,8.40
2010,06,22,05,34,8.30
2010,06,22,05,35,8.30
2010,06,22,05,36,8.30
2010,06,22,05,37,8.30
2010,06,22,05,38,8.30
2010,06,22,05,39,8.30
2010,06,22,05,40,8.30
2010,06,22,05,41,8.30
2010,06,22,05,42,8.30
2010,06,22,05,43,8.30
2010,06,22,05,44,8.30
2010,06,22,05,45,8.30
2010,06,22,05,46,8.30
2010,06,22,05,47,8.30
2010,06,22,05,48,8.30
2010,06,22,05,49,8.20
2010,06,22,05,50,8.20
2010,06,22,05,51,8.20
2010,06,22,05,52,8.20
2010,06,22,05,53,8.20
2010,06,22,05,54,8.20
2010,06,22,05,55,8.20
2010,06,22,05,56,8.20
2010,06,22,05,57,8.20
2010,06,22,05,58,8.20
2010,06,22,05,59,8.20
2010,06,22,06,00,8.20
2010,06,22,06,01,8.20
2010,06,22,06,02,8.20
2010,06,22,06,03,8.20
2010,06,22,06,04,8.20
2010,06,22,06,05,8.20
2010,06,22,06,06,8.10
2010,06,22,06,07,8.10
2010,06,22,06,08,8.10
2010,06,22,06,09,8.10
2010,06,22,06,10,8.10
2010,06,22,06,11,8.10
2010,06,22,06,12,8.10
2010,06,22,06,13,8.10
2010,06,22,06,14,8.20
2010,06,22,06,15,8.10
2010,06,22,06,16,8.20
2010,06,22,06,17,8.20
2010,06,22,06,18,8.20
2010,06,22,06,19,8.20
2010,06,22,06,20,8.20
2010,06,22,06,21,8.20
2010,06,22,06,22,8.20
2010,06,22,06,23,8.20
2010,06,22,06,24,8.20
2010,06,22,06,25,8.30
2010,06,22,06,26,8.30
2010,06,22,06,27,8.30
2010,06,22,06,28,8.30
2010,06,22,06,29,8.30
2010,06,22,06,30,8.30
2010,06,22,06,31,8.30
2010,06,22,06,32,8.40
2010,06,22,06,33,8.40
2010,06,22,06,34,8.40
2010,06,22,06,35,8.40
2010,06,22,06,36,8.40
2010,06,22,06,37,8.40
2010,06,22,06,38,8.50
2010,06,22,06,39,8.50
2010,06,22,06,40,8.50
2010,06,22,06,41,8.50
2010,06,22,06,42,8.50
2010,06,22,06,43,8.60
2010,06,22,06,44,8.60
2010,06,22,06,45,8.60
2010,06,22,06,46,8.60
2010,06,22,06,47,8.70
2010,06,22,06,48,8.70
2010,06,22,06,49,8.70
2010,06,22,06,50,8.80
2010,06,22,06,51,8.80
2010,06,22,06,52,8.90
2010,06,22,06,53,8.90
2010,06,22,06,54,8.90
2010,06,22,06,55,9.00
2010,06,22,06,56,9.10
2010,06,22,06,57,9.20
2010,06,22,06,58,9.20
2010,06,22,06,59,9.30
2010,06,22,07,00,9.30
2010,06,22,07,01,9.40
2010,06,22,07,02,9.50
2010,06,22,07,03,9.60
2010,06,22,07,04,9.60
2010,06,22,07,05,9.70
2010,06,22,07,06,9.70
2010,06,22,07,07,9.80
2010,06,22,07,08,9.80
2010,06,22,07,09,9.80
2010,06,22,07,10,9.90
2010,06,22,07,11,10.00
2010,06,22,07,12,10.00
2010,06,22,07,13,10.10
2010,06,22,07,14,10.20
2010,06,22,07,15,10.30
2010,06,22,07,16,10.40
2010,06,22,07,17,10.50
2010,06,22,07,18,10.60
2010,06,22,07,19,10.70
2010,06,22,07,20,10.80
2010,06,22,07,21,10.90
2010,06,22,07,22,11.00
2010,06,22,07,23,11.10
2010,06,22,07,24,11.20
2010,06,22,07,25,11.20
2010,06,22,07,26,11.30
2010,06,22,07,27,11.30
2010,06,22,07,28,11.40
2010,06,22,07,29,11.40
2010,06,22,07,30,11.50
2010,06,22,07,31,11.50
2010,06,22,07,32,11.60
2010,06,22,07,33,11.60
2010,06,22,07,34,11.60
2010,06,22,07,35,11.70
2010,06,22,07,36,11.70
2010,06,22,07,37,11.80
2010,06,22,07,38,11.80
2010,06,22,07,39,11.90
2010,06,22,07,40,11.90
2010,06,22,07,41,12.00
2010,06,22,07,42,12.10
2010,06,22,07,43,12.10
2010,06,22,07,44,12.20
2010,06,22,07,45,12.30
2010,06,22,07,46,12.40
2010,06,22,07,47,12.50
2010,06,22,07,48,12.60
2010,06,22,07,49,12.70
2010,06,22,07,50,12.70
2010,06,22,07,51,12.80
2010,06,22,07,52,12.90
2010,06,22,07,53,13.00
2010,06,22,07,54,13.00
2010,06,22,07,55,13.10
2010,06,22,07,56,13.10
2010,06,22,07,57,13.20
2010,06,22,07,58,13.20
2010,06,22,07,59,13.20
2010,06,22,08,00,13.30
2010,06,22,08,01,13.30
2010,06,22,08,02,13.40
2010,06,22,08,03,13.40
2010,06,22,08,04,13.50
2010,06,22,08,05,13.60
2010,06,22,08,06,13.60
2010,06,22,08,07,13.60
2010,06,22,08,08,13.70
2010,06,22,08,09,13.70
2010,06,22,08,10,13.80
2010,06,22,08,11,13.80
2010,06,22,08,12,13.90
2010,06,22,08,13,13.90
2010,06,22,08,14,14.00
2010,06,22,08,15,14.10
2010,06,22,08,16,14.10
2010,06,22,08,17,14.20
2010,06,22,08,18,14.20
2010,06,22,08,19,14.20
2010,06,22,08,20,14.30
2010,06,22,08,21,14.30
2010,06,22,08,22,14.40
2010,06,22,08,23,14.40
2010,06,22,08,24,14.50
2010,06,22,08,25,14.60
2010,06,22,08,26,14.60
2010,06,22,08,27,14.70
2010,06,22,08,28,14.70
2010,06,22,08,29,14.70
2010,06,22,08,30,14.80
2010,06,22,08,31,14.80
2010,06,22,08,32,14.90
2010,06,22,08,33,15.00
2010,06,22,08,34,15.00
2010,06,22,08,35,15.00
2010,06,22,08,36,15.10
2010,06,22,08,37,15.20
2010,06,22,08,38,15.30
2010,06,22,08,39,15.40
2010,06,22,08,40,15.40
2010,06,22,08,41,15.50
2010,06,22,08,42,15.60
2010,06,22,08,43,15.60
2010,06,22,08,44,15.70
2010,06,22,08,45,15.80
2010,06,22,08,46,15.80
2010,06,22,08,47,15.90
2010,06,22,08,48,15.90
2010,06,22,08,49,15.90
2010,06,22,08,50,15.90
2010,06,22,08,51,15.90
2010,06,22,08,52,15.90
2010,06,22,08,53,15.90
2010,06,22,08,54,15.90
2010,06,22,08,55,15.90
2010,06,22,08,56,15.90
2010,06,22,08,57,15.80
2010,06,22,08,58,15.80
2010,06,22,08,59,15.70
2010,06,22,09,00,15.70
2010,06,22,09,01,15.70
2010,06,22,09,02,15.70
2010,06,22,09,03,15.70
2010,06,22,09,04,15.70
2010,06,22,09,05,15.70
2010,06,22,09,06,15.70
2010,06,22,09,07,15.80
2010,06,22,09,08,15.80
2010,06,22,09,09,15.80
2010,06,22,09,10,15.80
2010,06,22,09,11,15.80
2010,06,22,09,12,15.80
2010,06,22,09,13,15.90
2010,06,22,09,14,16.00
2010,06,22,09,15,16.10
2010,06,22,09,16,16.20
2010,06,22,09,17,16.30
2010,06,22,09,18,16.40
2010,06,22,09,19,16.50
2010,06,22,09,20,16.50
2010,06,22,09,21,16.50
2010,06,22,09,22,16.50
2010,06,22,09,23,16.50
2010,06,22,09,24,16.50
2010,06,22,09,25,16.60
2010,06,22,09,26,16.60
2010,06,22,09,27,16.70
2010,06,22,09,28,16.70
2010,06,22,09,29,16.60
2010,06,22,09,30,16.60
2010,06,22,09,31,16.60
2010,06,22,09,32,16.60
2010,06,22,09,33,16.60
2010,06,22,09,34,16.60
2010,06,22,09,35,16.70
2010,06,22,09,36,16.70
2010,06,22,09,37,16.70
2010,06,22,09,38,16.70
2010,06,22,09,39,16.70
2010,06,22,09,40,16.70
2010,06,22,09,41,16.70
2010,06,22,09,42,16.70
2010,06,22,09,43,16.70
2010,06,22,09,44,16.70
2010,06,22,09,45,16.70
2010,06,22,09,46,16.70
2010,06,22,09,47,16.80
2010,06,22,09,48,16.80
2010,06,22,09,49,16.80
2010,06,22,09,50,16.80
2010,06,22,09,51,16.80
2010,06,22,09,52,16.90
2010,06,22,09,53,16.90
2010,06,22,09,54,16.90
2010,06,22,09,55,16.90
2010,06,22,09,56,16.90
2010,06,22,09,57,16.90
2010,06,22,09,58,16.90
2010,06,22,09,59,16.90
2010,06,22,10,00,17.00
2010,06,22,10,01,17.00
2010,06,22,10,02,17.10
2010,06,22,10,03,17.10
2010,06,22,10,04,17.20
2010,06,22,10,05,17.30
2010,06,22,10,06,17.40
2010,06,22,10,07,17.50
2010,06,22,10,08,17.50
2010,06,22,10,09,17.60
2010,06,22,10,10,17.70
2010,06,22,10,11,17.80
2010,06,22,10,12,17.90
2010,06,22,10,13,18.00
2010,06,22,10,14,18.10
2010,06,22,10,15,18.20
2010,06,22,10,16,18.20
2010,06,22,10,17,18.20
2010,06,22,10,18,18.30
2010,06,22,10,19,18.30
2010,06,22,10,20,18.20
2010,06,22,10,21,18.20
2010,06,22,10,22,18.20
2010,06,22,10,23,18.20
2010,06,22,10,24,18.10
2010,06,22,10,25,18.10
2010,06,22,10,26,18.10
2010,06,22,10,27,18.10
2010,06,22,10,28,18.10
2010,06,22,10,29,18.10
2010,06,22,10,30,18.10
2010,06,22,10,31,18.20
2010,06,22,10,32,18.20
2010,06,22,10,33,18.20
2010,06,22,10,34,18.10
2010,06,22,10,35,18.10
2010,06,22,10,36,18.10
2010,06,22,10,37,18.10
2010,06,22,10,38,18.10
2010,06,22,10,39,18.10
2010,06,22,10,40,18.00
2010,06,22,10,41,18.00
2010,06,22,10,42,18.00
2010,06,22,10,43,17.90
2010,06,22,10,44,17.90
2010,06,22,10,45,18.00
2010,06,22,10,46,18.10
2010,06,22,10,47,18.10
2010,06,22,10,48,18.10
2010,06,22,10,49,18.20
2010,06,22,10,50,18.20
2010,06,22,10,51,18.30
2010,06,22,10,52,18.30
2010,06,22,10,53,18.30
2010,06,22,10,54,18.30
2010,06,22,10,55,18.30
2010,06,22,10,56,18.30
2010,06,22,10,57,18.30
2010,06,22,10,58,18.30
2010,06,22,10,59,18.30
2010,06,22,11,00,18.30
2010,06,22,11,01,18.20
2010,06,22,11,02,18.20
2010,06,22,11,03,18.10
2010,06,22,11,04,18.10
2010,06,22,11,05,18.10
2010,06,22,11,06,18.10
2010,06,22,11,07,18.10
2010,06,22,11,08,18.10
2010,06,22,11,09,18.10
2010,06,22,11,10,18.10
2010,06,22,11,11,18.10
2010,06,22,11,12,18.10
2010,06,22,11,13,18.10
2010,06,22,11,14,18.10
2010,06,22,11,15,18.00
2010,06,22,11,16,17.90
2010,06,22,11,17,17.90
2010,06,22,11,18,17.90
2010,06,22,11,19,17.90
2010,06,22,11,20,17.90
2010,06,22,11,21,17.80
2010,06,22,11,22,17.90
2010,06,22,11,23,18.00
2010,06,22,11,24,18.00
2010,06,22,11,25,18.10
2010,06,22,11,26,18.20
2010,06,22,11,27,18.20
2010,06,22,11,28,18.30
2010,06,22,11,29,18.30
2010,06,22,11,30,18.40
2010,06,22,11,31,18.40
2010,06,22,11,32,18.40
2010,06,22,11,33,18.40
2010,06,22,11,34,18.40
2010,06,22,11,35,18.40
2010,06,22,11,36,18.40
2010,06,22,11,37,18.40
2010,06,22,11,38,18.40
2010,06,22,11,39,18.50
2010,06,22,11,40,18.50
2010,06,22,11,41,18.60
2010,06,22,11,42,18.60
2010,06,22,11,43,18.60
2010,06,22,11,44,18.70
2010,06,22,11,45,18.80
2010,06,22,11,46,18.80
2010,06,22,11,47,18.80
2010,06,22,11,48,18.90
2010,06,22,11,49,18.90
2010,06,22,11,50,19.00
2010,06,22,11,51,19.00
2010,06,22,11,52,19.10
2010,06,22,11,53,19.10
2010,06,22,11,54,19.10
2010,06,22,11,55,19.10
2010,06,22,11,56,19.10
2010,06,22,11,57,19.10
2010,06,22,11,58,19.10
2010,06,22,11,59,19.10
2010,06,22,12,00,19.20
2010,06,22,12,01,19.20
2010,06,22,12,02,19.20
2010,06,22,12,03,19.10
2010,06,22,12,04,19.10
2010,06,22,12,05,19.10
2010,06,22,12,06,19.10
2010,06,22,12,07,19.10
2010,06,22,12,08,19.20
2010,06,22,12,09,19.30
2010,06,22,12,10,19.40
2010,06,22,12,11,19.40
2010,06,22,12,12,19.40
2010,06,22,12,13,19.50
2010,06,22,12,14,19.60
2010,06,22,12,15,19.70
2010,06,22,12,16,19.80
2010,06,22,12,17,19.80
2010,06,22,12,18,19.80
2010,06,22,12,19,19.70
2010,06,22,12,20,19.60
2010,06,22,12,21,19.50
2010,06,22,12,22,19.50
2010,06,22,12,23,19.40
2010,06,22,12,24,19.40
2010,06,22,12,25,19.40
2010,06,22,12,26,19.40
2010,06,22,12,27,19.40
2010,06,22,12,28,19.40
2010,06,22,12,29,19.40
2010,06,22,12,30,19.40
2010,06,22,12,31,19.50
2010,06,22,12,32,19.50
2010,06,22,12,33,19.60
2010,06,22,12,34,19.60
2010,06,22,12,35,19.60
2010,06,22,12,36,19.70
2010,06,22,12,37,19.80
2010,06,22,12,38,19.70
2010,06,22,12,39,19.70
2010,06,22,12,40,19.70
2010,06,22,12,41,19.80
2010,06,22,12,42,19.90
2010,06,22,12,43,20.00
2010,06,22,12,44,20.10
2010,06,22,12,45,20.20
2010,06,22,12,46,20.30
2010,06,22,12,47,20.40
2010,06,22,12,48,20.50
2010,06,22,12,49,20.50
2010,06,22,12,50,20.60
2010,06,22,12,51,20.60
2010,06,22,12,52,20.60
2010,06,22,12,53,20.60
2010,06,22,12,54,20.50
2010,06,22,12,55,20.40
2010,06,22,12,56,20.50
2010,06,22,12,57,20.50
2010,06,22,12,58,20.60
2010,06,22,12,59,20.70
2010,06,22,13,00,20.80
2010,06,22,13,01,20.80
2010,06,22,13,02,20.80
2010,06,22,13,03,20.80
2010,06,22,13,04,20.80
2010,06,22,13,05,20.80
2010,06,22,13,06,20.80
2010,06,22,13,07,20.80
2010,06,22,13,08,20.90
2010,06,22,13,09,20.90
2010,06,22,13,10,20.90
2010,06,22,13,11,20.90
2010,06,22,13,12,20.90
2010,06,22,13,13,20.80
2010,06,22,13,14,20.70
2010,06,22,13,15,20.60
2010,06,22,13,16,20.50
2010,06,22,13,17,20.40
2010,06,22,13,18,20.40
2010,06,22,13,19,20.30
2010,06,22,13,20,20.40
2010,06,22,13,21,20.40
2010,06,22,13,22,20.40
2010,06,22,13,23,20.40
2010,06,22,13,24,20.50
2010,06,22,13,25,20.60
2010,06,22,13,26,20.70
2010,06,22,13,27,20.70
2010,06,22,13,28,20.70
2010,06,22,13,29,20.70
2010,06,22,13,30,20.60
2010,06,22,13,31,20.60
2010,06,22,13,32,20.50
2010,06,22,13,33,20.50
2010,06,22,13,34,20.40
2010,06,22,13,35,20.40
2010,06,22,13,36,20.40
2010,06,22,13,37,20.30
2010,06,22,13,38,20.30
2010,06,22,13,39,20.20
2010,06,22,13,40,20.10
2010,06,22,13,41,20.10
2010,06,22,13,42,20.10
2010,06,22,13,43,20.20
2010,06,22,13,44,20.20
2010,06,22,13,45,20.20
2010,06,22,13,46,20.30
2010,06,22,13,47,20.30
2010,06,22,13,48,20.40
2010,06,22,13,49,20.40
2010,06,22,13,50,20.40
2010,06,22,13,51,20.40
2010,06,22,13,52,20.40
2010,06,22,13,53,20.30
2010,06,22,13,54,20.30
2010,06,22,13,55,20.30
2010,06,22,13,56,20.30
2010,06,22,13,57,20.30
2010,06,22,13,58,20.30
2010,06,22,13,59,20.30
2010,06,22,14,00,20.20
2010,06,22,14,01,20.20
2010,06,22,14,02,20.20
2010,06,22,14,03,20.20
2010,06,22,14,04,20.20
2010,06,22,14,05,20.30
2010,06,22,14,06,20.40
2010,06,22,14,07,20.50
2010,06,22,14,08,20.60
2010,06,22,14,09,20.50
2010,06,22,14,10,20.40
2010,06,22,14,11,20.40
2010,06,22,14,12,20.40
2010,06,22,14,13,20.40
2010,06,22,14,14,20.40
2010,06,22,14,15,20.50
2010,06,22,14,16,20.50
2010,06,22,14,17,20.60
2010,06,22,14,18,20.60
2010,06,22,14,19,20.70
2010,06,22,14,20,20.80
2010,06,22,14,21,20.80
2010,06,22,14,22,20.90
2010,06,22,14,23,20.90
2010,06,22,14,24,21.00
2010,06,22,14,25,21.00
2010,06,22,14,26,21.00
2010,06,22,14,27,21.00
2010,06,22,14,28,21.00
2010,06,22,14,29,21.00
2010,06,22,14,30,21.10
2010,06,22,14,31,21.10
2010,06,22,14,32,21.20
2010,06,22,14,33,21.20
2010,06,22,14,34,21.20
2010,06,22,14,35,21.30
2010,06,22,14,36,21.30
2010,06,22,14,37,21.30
2010,06,22,14,38,21.40
2010,06,22,14,39,21.40
2010,06,22,14,40,21.30
2010,06,22,14,41,21.30
2010,06,22,14,42,21.30
2010,06,22,14,43,21.20
2010,06,22,14,44,21.30
2010,06,22,14,45,21.30
2010,06,22,14,46,21.30
2010,06,22,14,47,21.30
2010,06,22,14,48,21.30
2010,06,22,14,49,21.30
2010,06,22,14,50,21.40
2010,06,22,14,51,21.40
2010,06,22,14,52,21.40
2010,06,22,14,53,21.40
2010,06,22,14,54,21.30
2010,06,22,14,55,21.30
2010,06,22,14,56,21.30
2010,06,22,14,57,21.40
2010,06,22,14,58,21.40
2010,06,22,14,59,21.50
2010,06,22,15,00,21.50
2010,06,22,15,01,21.50
2010,06,22,15,02,21.40
2010,06,22,15,03,21.30
2010,06,22,15,04,21.30
2010,06,22,15,05,21.20
2010,06,22,15,06,21.20
2010,06,22,15,07,21.10
2010,06,22,15,08,21.10
2010,06,22,15,09,21.10
2010,06,22,15,10,21.10
2010,06,22,15,11,21.10
2010,06,22,15,12,21.10
2010,06,22,15,13,21.20
2010,06,22,15,14,21.20
2010,06,22,15,15,21.30
2010,06,22,15,16,21.20
2010,06,22,15,17,21.20
2010,06,22,15,18,21.20
2010,06,22,15,19,21.10
2010,06,22,15,20,21.10
2010,06,22,15,21,21.00
2010,06,22,15,22,21.00
2010,06,22,15,23,20.90
2010,06,22,15,24,20.90
2010,06,22,15,25,20.90
2010,06,22,15,26,20.80
2010,06,22,15,27,20.70
2010,06,22,15,28,20.60
2010,06,22,15,29,20.50
2010,06,22,15,30,20.50
2010,06,22,15,31,20.50
2010,06,22,15,32,20.40
2010,06,22,15,33,20.40
2010,06,22,15,34,20.40
2010,06,22,15,35,20.40
2010,06,22,15,36,20.40
2010,06,22,15,37,20.40
2010,06,22,15,38,20.40
2010,06,22,15,39,20.30
2010,06,22,15,40,20.30
2010,06,22,15,41,20.30
2010,06,22,15,42,20.30
2010,06,22,15,43,20.30
2010,06,22,15,44,20.30
2010,06,22,15,45,20.30
2010,06,22,15,46,20.30
2010,06,22,15,47,20.20
2010,06,22,15,48,20.20
2010,06,22,15,49,20.20
2010,06,22,15,50,20.20
2010,06,22,15,51,20.30
2010,06,22,15,52,20.30
2010,06,22,15,53,20.30
2010,06,22,15,54,20.30
2010,06,22,15,55,20.30
2010,06,22,15,56,20.30
2010,06,22,15,57,20.30
2010,06,22,15,58,20.40
2010,06,22,15,59,20.40
2010,06,22,16,00,20.30
2010,06,22,16,01,20.20
2010,06,22,16,02,20.10
2010,06,22,16,03,20.10
2010,06,22,16,04,20.00
2010,06,22,16,05,19.90
2010,06,22,16,06,19.90
2010,06,22,16,07,19.90
2010,06,22,16,08,19.90
2010,06,22,16,09,19.90
2010,06,22,16,10,19.90
2010,06,22,16,11,19.90
2010,06,22,16,12,19.90
2010,06,22,16,13,19.90
2010,06,22,16,14,19.90
2010,06,22,16,15,19.90
2010,06,22,16,16,19.90
2010,06,22,16,17,19.90
2010,06,22,16,18,19.90
2010,06,22,16,19,19.90
2010,06,22,16,20,19.90
2010,06,22,16,21,19.90
2010,06,22,16,22,19.90
2010,06,22,16,23,19.90
2010,06,22,16,24,19.90
2010,06,22,16,25,19.90
2010,06,22,16,26,19.90
2010,06,22,16,27,19.90
2010,06,22,16,28,19.90
2010,06,22,16,29,19.90
2010,06,22,16,30,19.90
2010,06,22,16,31,19.90
2010,06,22,16,32,19.90
2010,06,22,16,33,19.90
2010,06,22,16,34,19.90
2010,06,22,16,35,19.80
2010,06,22,16,36,19.80
2010,06,22,16,37,19.80
2010,06,22,16,38,19.80
2010,06,22,16,39,19.80
2010,06,22,16,40,19.80
2010,06,22,16,41,19.80
2010,06,22,16,42,19.80
2010,06,22,16,43,19.80
2010,06,22,16,44,19.80
2010,06,22,16,45,19.80
2010,06,22,16,46,19.80
2010,06,22,16,47,19.80
2010,06,22,16,48,19.90
2010,06,22,16,49,19.90
2010,06,22,16,50,19.90
2010,06,22,16,51,20.00
2010,06,22,16,52,20.00
2010,06,22,16,53,20.00
2010,06,22,16,54,20.00
2010,06,22,16,55,20.00
2010,06,22,16,56,20.00
2010,06,22,16,57,20.00
2010,06,22,16,58,20.00
2010,06,22,16,59,20.00
2010,06,22,17,00,20.00
2010,06,22,17,01,20.00
2010,06,22,17,02,20.00
2010,06,22,17,03,19.90
2010,06,22,17,04,19.90
2010,06,22,17,05,19.90
2010,06,22,17,06,19.90
2010,06,22,17,07,19.90
2010,06,22,17,08,19.90
2010,06,22,17,09,19.90
2010,06,22,17,10,19.90
2010,06,22,17,11,19.90
2010,06,22,17,12,19.90
2010,06,22,17,13,19.90
2010,06,22,17,14,19.90
2010,06,22,17,15,19.90
2010,06,22,17,16,19.90
2010,06,22,17,17,19.90
2010,06,22,17,18,19.90
2010,06,22,17,19,20.00
2010,06,22,17,20,20.00
2010,06,22,17,21,20.00
2010,06,22,17,22,20.00
2010,06,22,17,23,20.00
2010,06,22,17,24,20.00
2010,06,22,17,25,20.00
2010,06,22,17,26,20.00
2010,06,22,17,27,20.00
2010,06,22,17,28,20.00
2010,06,22,17,29,20.00
2010,06,22,17,30,19.90
2010,06,22,17,31,19.90
2010,06,22,17,32,19.80
2010,06,22,17,33,19.80
2010,06,22,17,34,19.80
2010,06,22,17,35,19.80
2010,06,22,17,36,19.80
2010,06,22,17,37,19.80